| time (UTC) | temp F | wind direction | speed MPH | gust MPH | rain 1hr in | rain 24hr in | rain mn in | humidity % | barometer mb |
| 20260903191540 | 86 | 184 | 1.0 | 8.0 | 0.00 | 0.27 | 0.17 | 63 | 1012.3 |
| 20260903190039 | 83 | 345 | 2.0 | 4.0 | 0.00 | 0.27 | 0.17 | 65 | 1012.5 |
| 20260903184538 | 84 | 308 | 2.0 | 8.0 | 0.00 | 0.31 | 0.17 | 65 | 1012.7 |
| 20260903183041 | 83 | 257 | 3.0 | 6.0 | 0.00 | 0.31 | 0.17 | 66 | 1012.7 |
| 20260903181539 | 83 | 198 | 4.0 | 10.0 | 0.00 | 0.31 | 0.17 | 67 | 1012.6 |
| 20260903180058 | 82 | 274 | 4.0 | 9.0 | 0.00 | 0.31 | 0.17 | 68 | 1013.2 |
| 20260903174539 | 81 | 285 | 2.0 | 8.0 | 0.00 | 0.31 | 0.17 | 69 | 1013.0 |
| 20260903173042 | 83 | 311 | 3.0 | 11.0 | 0.00 | 0.31 | 0.17 | 67 | 1013.3 |
| 20260903171548 | 81 | 301 | 4.0 | 10.0 | 0.00 | 0.31 | 0.17 | 70 | 1013.7 |
| 20260903170100 | 81 | 340 | 3.0 | 12.0 | 0.00 | 0.31 | 0.17 | 72 | 1013.8 |
| 20260903164542 | 80 | 233 | 2.0 | 9.0 | 0.00 | 0.31 | 0.17 | 73 | 1013.7 |
| 20260903163043 | 79 | 315 | 3.0 | 10.0 | 0.00 | 0.31 | 0.17 | 76 | 1013.8 |
| 20260903161538 | 78 | 296 | 3.0 | 11.0 | 0.00 | 0.31 | 0.17 | 76 | 1014.0 |
| 20260903160038 | 77 | 269 | 3.0 | 12.0 | 0.00 | 0.31 | 0.17 | 78 | 1014.6 |
| 20260903154539 | 76 | 190 | 7.0 | 14.0 | 0.00 | 0.31 | 0.17 | 79 | 1014.7 |
| 20260903153037 | 76 | 295 | 3.0 | 8.0 | 0.00 | 0.31 | 0.17 | 80 | 1014.5 |
| 20260903151538 | 75 | 307 | 4.0 | 9.0 | 0.00 | 0.31 | 0.17 | 83 | 1014.6 |
| 20260903150038 | 74 | 248 | 2.0 | 6.0 | 0.00 | 0.31 | 0.17 | 83 | 1014.7 |
| 20260903144540 | 74 | 351 | 2.0 | 7.0 | 0.00 | 0.31 | 0.17 | 85 | 1014.7 |
| 20260903143034 | 73 | 304 | 2.0 | 11.0 | 0.00 | 0.31 | 0.17 | 85 | 1015.0 |
| 20260903141540 | 73 | 254 | 2.0 | 9.0 | 0.00 | 0.31 | 0.17 | 85 | 1014.7 |
| 20260903140040 | 73 | 219 | 1.0 | 9.0 | 0.00 | 0.31 | 0.17 | 87 | 1014.7 |
| 20260903134535 | 72 | 225 | 2.0 | 11.0 | 0.00 | 0.31 | 0.17 | 89 | 1015.0 |
| 20260903133040 | 71 | 232 | 3.0 | 7.0 | 0.00 | 0.31 | 0.17 | 90 | 1014.9 |
| 20260903131542 | 70 | 225 | 2.0 | 5.0 | 0.00 | 0.31 | 0.17 | 91 | 1014.6 |
| 20260903124537 | 69 | 221 | 2.0 | 4.0 | 0.00 | 0.31 | 0.17 | 92 | 1015.4 |
| 20260903123037 | 69 | 0 | 0.0 | 2.0 | 0.00 | 0.31 | 0.17 | 92 | 1015.5 |
| 20260903121545 | 69 | 0 | 0.0 | 0.0 | 0.00 | 0.31 | 0.17 | 92 | 1015.4 |
| 20260903120039 | 68 | 303 | 1.0 | 6.0 | 0.00 | 0.31 | 0.17 | 92 | 1015.6 |
| 20260903114539 | 68 | 203 | 0.0 | 3.0 | 0.00 | 0.31 | 0.17 | 92 | 1015.5 |
| 20260903113043 | 68 | 0 | 0.0 | 3.0 | 0.00 | 0.31 | 0.17 | 92 | 1015.6 |
| 20260903111538 | 68 | 203 | 0.0 | 2.0 | 0.00 | 0.31 | 0.17 | 92 | 1015.5 |
| 20260903110108 | 68 | 0 | 0.0 | 4.0 | 0.00 | 0.31 | 0.17 | 92 | 1015.4 |
| 20260903104538 | 68 | 254 | 1.0 | 6.0 | 0.00 | 0.31 | 0.17 | 92 | 1015.2 |
| 20260903103042 | 68 | 234 | 0.0 | 3.0 | 0.00 | 0.31 | 0.17 | 92 | 1015.8 |
| 20260903101539 | 68 | 229 | 0.0 | 3.0 | 0.00 | 0.31 | 0.17 | 92 | 1015.3 |
| 20260903100038 | 68 | 208 | 1.0 | 7.0 | 0.00 | 0.31 | 0.17 | 92 | 1014.9 |
| 20260903094550 | 69 | 267 | 1.0 | 5.0 | 0.00 | 0.32 | 0.17 | 92 | 1014.9 |
| 20260903093040 | 68 | 215 | 3.0 | 6.0 | 0.01 | 0.32 | 0.17 | 92 | 1014.9 |
| 20260903091539 | 68 | 255 | 1.0 | 3.0 | 0.01 | 0.32 | 0.17 | 92 | 1014.9 |
| 20260903090040 | 67 | 0 | 0.0 | 0.0 | 0.01 | 0.32 | 0.17 | 92 | 1015.0 |
| 20260903084537 | 67 | 0 | 0.0 | 0.0 | 0.01 | 0.32 | 0.17 | 92 | 1014.7 |
| 20260903083039 | 67 | 241 | 1.0 | 3.0 | 0.00 | 0.31 | 0.16 | 92 | 1015.3 |
| 20260903081544 | 67 | 0 | 0.0 | 2.0 | 0.00 | 0.31 | 0.16 | 92 | 1015.8 |
| 20260903080039 | 67 | 0 | 0.0 | 3.0 | 0.01 | 0.31 | 0.16 | 92 | 1015.7 |
| 20260903074541 | 67 | 159 | 1.0 | 4.0 | 0.03 | 0.31 | 0.16 | 92 | 1015.2 |
| 20260903073117 | 67 | 0 | 0.0 | 2.0 | 0.03 | 0.31 | 0.16 | 92 | 1015.8 |
| 20260903071543 | 67 | 215 | 1.0 | 2.0 | 0.03 | 0.31 | 0.16 | 92 | 1016.0 |
| 20260903070042 | 67 | 0 | 0.0 | 0.0 | 0.02 | 0.29 | 0.14 | 92 | 1016.2 |
| 20260903064541 | 67 | 0 | 0.0 | 0.0 | 0.01 | 0.28 | 0.13 | 92 | 1016.3 |
| 20260903063042 | 67 | 0 | 0.0 | 0.0 | 0.03 | 0.28 | 0.13 | 92 | 1016.2 |
| 20260903061550 | 67 | 0 | 0.0 | 0.0 | 0.05 | 0.28 | 0.13 | 91 | 1016.6 |
| 20260903060043 | 67 | 0 | 0.0 | 0.0 | 0.07 | 0.27 | 0.12 | 91 | 1016.8 |
| 20260903054547 | 67 | 0 | 0.0 | 2.0 | 0.11 | 0.27 | 0.12 | 91 | 1016.7 |
| 20260903053100 | 67 | 0 | 0.0 | 1.0 | 0.10 | 0.25 | 0.10 | 91 | 1016.9 |
| 20260903051543 | 67 | 0 | 0.0 | 1.0 | 0.08 | 0.23 | 0.08 | 91 | 1018.1 |
| 20260903050043 | 67 | 305 | 3.0 | 7.0 | 0.05 | 0.20 | 0.05 | 91 | 1018.9 |
| 20260903044551 | 67 | 290 | 0.0 | 2.0 | 0.01 | 0.16 | 0.01 | 91 | 1018.2 |
| 20260903043045 | 67 | 0 | 0.0 | 2.0 | 0.00 | 0.15 | 0.00 | 91 | 1018.4 |
| 20260903041548 | 67 | 0 | 0.0 | 0.0 | 0.00 | 0.15 | 0.00 | 91 | 1018.2 |
| 20260903040041 | 67 | 0 | 0.0 | 0.0 | 0.00 | 0.15 | 0.00 | 91 | 1018.4 |
| 20260903034549 | 67 | 0 | 0.0 | 0.0 | 0.00 | 0.15 | 0.15 | 91 | 1018.7 |
| 20260903033057 | 67 | 0 | 0.0 | 0.0 | 0.00 | 0.15 | 0.15 | 91 | 1018.2 |
| 20260903031541 | 66 | 0 | 0.0 | 2.0 | 0.00 | 0.15 | 0.15 | 91 | 1018.2 |
| 20260903030044 | 66 | 0 | 0.0 | 3.0 | 0.00 | 0.15 | 0.15 | 91 | 1018.6 |
| 20260903024544 | 66 | 101 | 0.0 | 3.0 | 0.00 | 0.15 | 0.15 | 91 | 1018.5 |
| 20260903023041 | 66 | 0 | 0.0 | 2.0 | 0.00 | 0.15 | 0.15 | 91 | 1018.7 |
| 20260903021548 | 66 | 94 | 1.0 | 2.0 | 0.00 | 0.15 | 0.15 | 91 | 1018.8 |
| 20260903020041 | 66 | 82 | 0.0 | 2.0 | 0.00 | 0.15 | 0.15 | 91 | 1018.6 |
| 20260903014549 | 66 | 90 | 0.0 | 2.0 | 0.00 | 0.15 | 0.15 | 91 | 1018.8 |
| 20260903013042 | 66 | 0 | 0.0 | 2.0 | 0.00 | 0.15 | 0.15 | 91 | 1019.0 |
| 20260903011543 | 66 | 91 | 0.0 | 3.0 | 0.00 | 0.15 | 0.15 | 91 | 1019.1 |
| 20260903010038 | 66 | 99 | 1.0 | 4.0 | 0.00 | 0.15 | 0.15 | 91 | 1019.2 |
| 20260903004550 | 66 | 100 | 1.0 | 3.0 | 0.00 | 0.15 | 0.15 | 91 | 1019.4 |
| 20260903003040 | 66 | 166 | 0.0 | 3.0 | 0.00 | 0.15 | 0.15 | 91 | 1019.5 |
| 20260903001538 | 66 | 99 | 1.0 | 4.0 | 0.00 | 0.15 | 0.15 | 91 | 1019.1 |
| 20260903000038 | 65 | 101 | 1.0 | 4.0 | 0.00 | 0.15 | 0.15 | 91 | 1018.6 |
| 20260902234538 | 65 | 68 | 1.0 | 3.0 | 0.00 | 0.15 | 0.15 | 91 | 1018.7 |
| 20260902233039 | 65 | 135 | 2.0 | 4.0 | 0.00 | 0.15 | 0.15 | 91 | 1018.8 |
| 20260902231548 | 66 | 79 | 2.0 | 6.0 | 0.00 | 0.15 | 0.15 | 90 | 1018.7 |
| 20260902230037 | 65 | 81 | 2.0 | 4.0 | 0.00 | 0.15 | 0.15 | 90 | 1019.1 |
| 20260902224538 | 65 | 71 | 1.0 | 4.0 | 0.00 | 0.15 | 0.15 | 90 | 1019.6 |
| 20260902223039 | 65 | 76 | 1.0 | 6.0 | 0.00 | 0.15 | 0.15 | 90 | 1019.7 |
| 20260902221540 | 65 | 85 | 0.0 | 3.0 | 0.00 | 0.15 | 0.15 | 90 | 1019.9 |
| 20260902220035 | 65 | 96 | 1.0 | 3.0 | 0.00 | 0.15 | 0.15 | 90 | 1020.0 |
| 20260902214539 | 65 | 86 | 2.0 | 4.0 | 0.00 | 0.15 | 0.15 | 90 | 1019.6 |
| 20260902213039 | 65 | 96 | 2.0 | 6.0 | 0.00 | 0.15 | 0.15 | 90 | 1019.6 |
| 20260902211535 | 65 | 102 | 1.0 | 5.0 | 0.00 | 0.15 | 0.15 | 90 | 1019.7 |
| 20260902210045 | 65 | 146 | 1.0 | 6.0 | 0.00 | 0.15 | 0.15 | 90 | 1019.6 |
| 20260902204543 | 65 | 87 | 3.0 | 8.0 | 0.00 | 0.15 | 0.15 | 90 | 1019.6 |
| 20260902203041 | 66 | 92 | 2.0 | 6.0 | 0.04 | 0.15 | 0.15 | 90 | 1019.6 |
| 20260902201548 | 66 | 117 | 2.0 | 7.0 | 0.08 | 0.15 | 0.15 | 90 | 1019.7 |
| 20260902200040 | 67 | 178 | 2.0 | 5.0 | 0.10 | 0.15 | 0.15 | 90 | 1019.5 |
| 20260902194539 | 67 | 99 | 2.0 | 5.0 | 0.14 | 0.15 | 0.15 | 89 | 1019.7 |
| 20260902193040 | 67 | 78 | 0.0 | 2.0 | 0.09 | 0.10 | 0.10 | 88 | 1020.4 |